SL-12 R/B(2)

Last updated on Thu Nov 21 2024 00:02:12 GMT+0000 (Coordinated Universal Time)

1 15772U 85042D 24325.55372660 .00000278 00000+0 14707-3 0 9999 2 15772 71.1092 9.2830 0033768 146.9380 19.1807 14.21769980 46995
UTC large
Height (km)
Speed (km/s)
/
Latitude / Longitude
Inclination (degrees)
Orbital Period (minutes)
Azimuth
Elevation
Range (km)
Doppler Factor

Next 0 passes for location: London (51.5072 / 0.1276)

Sorry there are no passes over London.